Mora, MN

11:14 PM CDT on September 22, 2017 (GMT -0500)
Mora Municipal

Weather History for KJMR - July, 2014

Change the Weather History Date:

Tuesday, July 29, 2014

  Actual Average Record
Temperature  
Mean Temperature 64 °F -  
Max Temperature 75 °F 80 °F 97 °F (1933)
Min Temperature 53 °F 52 °F 41 °F (1971)
Degree Days  
Heating Degree Days 1    
Growing Degree Days 14 (Base 50)    
Moisture  
Dew Point 54 °F    
Average Humidity 73    
Maximum Humidity 100    
Minimum Humidity 47    
Precipitation  
Precipitation 0.00 in - - ()
Sea Level Pressure  
Sea Level Pressure 30.11 in    
Wind  
Wind Speed 3 mph (NW)    
Max Wind Speed 15 mph    
Max Gust Speed 20 mph    
Visibility 10 miles    
Events      
Averages and records for this station are not official NWS values.
T = Trace of Precipitation, MM = Missing Value Source: NWS Daily Summary

Daily Weather History Graph

Daily Weather History Graph

Search for Another Location

Airport or City:

Trip Planner

Search our weather history database for the weather conditions in past years. The results will help you decide how hot, cold, wet, or windy it might be!

Date:

Astronomy

Jul. 29, 2014 Rise Set
Actual Time 5:52 AM CDT 8:45 PM CDT
Civil Twilight 5:17 AM CDT 9:20 PM CDT
Nautical Twilight 4:32 AM CDT 10:05 PM CDT
Astronomical Twilight 3:39 AM CDT 10:57 PM CDT
Moon 8:40 AM CDT (7/29) 9:45 PM CDT (7/29)
Length of Visible Light 16h 03m
Length of Day
14h 53m
Waxing Crescent, 7% of the Moon is Illuminated
Jul 29
Waxing Crescent
Aug 3
First Quarter
Aug 10
Full
Aug 17
Last Quarter
Aug 25
New

Hourly Weather History & Observations

Time (CDT) Temp. Dew Point Humidity Pressure Visibility Wind Dir Wind Speed Gust Speed Precip Events Conditions
12:13 AM 55.4 °F 51.8 °F 88% 30.15 in 10.0 mi Calm Calm - N/A   Clear
12:33 AM 55.4 °F 53.6 °F 94% 30.15 in 10.0 mi Calm Calm - N/A   Clear
12:53 AM 55.4 °F 53.6 °F 94% 30.16 in 10.0 mi Calm Calm - N/A   Clear
1:13 AM 55.4 °F 53.6 °F 94% 30.15 in 10.0 mi Calm Calm - N/A   Clear
1:33 AM 55.4 °F 53.6 °F 94% 30.15 in 10.0 mi Calm Calm - N/A   Clear
1:53 AM 55.4 °F 53.6 °F 94% 30.14 in 10.0 mi Calm Calm - N/A   Clear
2:13 AM 55.4 °F 53.6 °F 94% 30.14 in 10.0 mi Calm Calm - N/A   Clear
2:33 AM 53.6 °F 51.8 °F 94% 30.14 in 10.0 mi Calm Calm - N/A   Clear
2:53 AM 53.6 °F 51.8 °F 94% 30.14 in 10.0 mi Calm Calm - N/A   Clear
3:13 AM 53.6 °F 51.8 °F 94% 30.14 in 10.0 mi Calm Calm - N/A   Clear
3:33 AM 53.6 °F 51.8 °F 94% 30.14 in 10.0 mi Calm Calm - N/A   Clear
3:53 AM 53.6 °F 51.8 °F 94% 30.13 in 10.0 mi Calm Calm - N/A   Clear
4:13 AM 53.6 °F 51.8 °F 94% 30.14 in 10.0 mi Calm Calm - N/A   Clear
4:33 AM 53.6 °F 51.8 °F 94% 30.14 in 10.0 mi Calm Calm - N/A   Clear
4:53 AM 53.6 °F 51.8 °F 94% 30.14 in 5.0 mi Calm Calm - N/A   Clear
5:13 AM 53.6 °F 53.6 °F 100% 30.14 in 10.0 mi Calm Calm - N/A   Clear
5:33 AM 53.6 °F 51.8 °F 94% 30.14 in 10.0 mi Calm Calm - N/A   Clear
5:53 AM 53.6 °F 51.8 °F 94% 30.14 in 10.0 mi Calm Calm - N/A   Clear
6:13 AM 53.6 °F 51.8 °F 94% 30.14 in 10.0 mi Calm Calm - N/A   Clear
6:33 AM 53.6 °F 51.8 °F 94% 30.14 in 10.0 mi Calm Calm - N/A   Clear
6:53 AM 53.6 °F 53.6 °F 100% 30.14 in 10.0 mi Calm Calm - N/A   Clear
7:13 AM 55.4 °F 53.6 °F 94% 30.14 in 10.0 mi Calm Calm - N/A   Clear
7:33 AM 55.4 °F 55.4 °F 100% 30.14 in 10.0 mi NW 3.5 mph - N/A   Clear
7:53 AM 59.0 °F 55.4 °F 88% 30.14 in 10.0 mi Calm Calm - N/A   Clear
8:13 AM 60.8 °F 55.4 °F 82% 30.15 in 10.0 mi NW 3.5 mph - N/A   Clear
8:33 AM 62.6 °F 57.2 °F 82% 30.14 in 10.0 mi WNW 3.5 mph - N/A   Clear
9:13 AM 64.4 °F 59.0 °F 83% 30.14 in 10.0 mi NW 3.5 mph - N/A   Clear
9:53 AM 69.8 °F 59.0 °F 68% 30.13 in 10.0 mi NNW 6.9 mph - N/A   Clear
10:13 AM 69.8 °F 57.2 °F 64% 30.13 in 10.0 mi WNW 8.1 mph - N/A   Clear
10:33 AM 69.8 °F 57.2 °F 64% 30.13 in 10.0 mi NW 8.1 mph - N/A   Clear
10:53 AM 71.6 °F 57.2 °F 60% 30.13 in 10.0 mi NW 9.2 mph - N/A   Clear
11:13 AM 71.6 °F 59.0 °F 64% 30.13 in 10.0 mi NNW 10.4 mph - N/A   Clear
11:33 AM 73.4 °F 59.0 °F 61% 30.13 in 10.0 mi NNW 10.4 mph - N/A   Clear
11:53 AM 73.4 °F 57.2 °F 57% 30.13 in 10.0 mi NNW 9.2 mph - N/A   Clear
12:13 PM 73.4 °F 55.4 °F 53% 30.13 in 10.0 mi NNW 10.4 mph 17.3 mph N/A   Clear
12:33 PM 73.4 °F 55.4 °F 53% 30.13 in 10.0 mi NNW 9.2 mph - N/A   Clear
12:53 PM 73.4 °F 55.4 °F 53% 30.12 in 10.0 mi NNW 9.2 mph - N/A   Clear
1:13 PM 73.4 °F 55.4 °F 53% 30.11 in 10.0 mi NW 10.4 mph 16.1 mph N/A   Clear
1:33 PM 75.2 °F 55.4 °F 50% 30.11 in 10.0 mi North 10.4 mph 17.3 mph N/A   Clear
1:53 PM 75.2 °F 53.6 °F 47% 30.10 in 10.0 mi NNW 15.0 mph - N/A   Clear
2:13 PM 75.2 °F 53.6 °F 47% 30.10 in 10.0 mi NW 9.2 mph 17.3 mph N/A   Clear
2:33 PM 75.2 °F 55.4 °F 50% 30.10 in 10.0 mi NNW 9.2 mph 17.3 mph N/A   Clear
2:53 PM 75.2 °F 53.6 °F 47% 30.09 in 10.0 mi NW 9.2 mph - N/A   Clear
3:13 PM 75.2 °F 53.6 °F 47% 30.08 in 10.0 mi NW 10.4 mph - N/A   Clear
3:33 PM 75.2 °F 55.4 °F 50% 30.08 in 10.0 mi NNW 12.7 mph 17.3 mph N/A   Clear
3:53 PM 75.2 °F 55.4 °F 50% 30.08 in 10.0 mi NW 10.4 mph - N/A   Clear
4:13 PM 73.4 °F 53.6 °F 50% 30.07 in 10.0 mi WNW 10.4 mph - N/A   Scattered Clouds
4:33 PM 75.2 °F 55.4 °F 50% 30.07 in 10.0 mi WNW 8.1 mph - N/A   Scattered Clouds
5:13 PM 73.4 °F 53.6 °F 50% 30.07 in 10.0 mi NW 10.4 mph - N/A   Clear
5:33 PM 73.4 °F 53.6 °F 50% 30.06 in 10.0 mi NW 8.1 mph 11.5 mph N/A   Clear
5:53 PM 73.4 °F 51.8 °F 47% 30.06 in 10.0 mi NW 11.5 mph 19.6 mph N/A   Clear
6:13 PM 73.4 °F 51.8 °F 47% 30.06 in 10.0 mi NNW 11.5 mph - N/A   Clear
6:33 PM 73.4 °F 53.6 °F 50% 30.06 in 10.0 mi NNW 9.2 mph - N/A   Clear
6:53 PM 73.4 °F 53.6 °F 50% 30.06 in 10.0 mi NNW 8.1 mph - N/A   Clear
7:13 PM 71.6 °F 53.6 °F 53% 30.06 in 10.0 mi NNW 8.1 mph - N/A   Clear
7:33 PM 69.8 °F 53.6 °F 56% 30.06 in 10.0 mi NW 6.9 mph - N/A   Clear
7:53 PM 69.8 °F 53.6 °F 56% 30.06 in 10.0 mi NW 3.5 mph - N/A   Clear
8:13 PM 69.8 °F 55.4 °F 60% 30.05 in 10.0 mi WNW 3.5 mph - N/A   Clear
8:33 PM 64.4 °F 55.4 °F 73% 30.06 in 10.0 mi Calm Calm - N/A   Clear
8:53 PM 64.4 °F 57.2 °F 77% 30.06 in 10.0 mi Calm Calm - N/A   Clear
9:13 PM 62.6 °F 55.4 °F 77% 30.07 in 10.0 mi Calm Calm - N/A   Clear
9:33 PM 60.8 °F 55.4 °F 82% 30.07 in 10.0 mi Calm Calm - N/A   Clear
9:53 PM 60.8 °F 55.4 °F 82% 30.08 in 10.0 mi Calm Calm - N/A   Scattered Clouds
10:13 PM 60.8 °F 55.4 °F 82% 30.08 in 10.0 mi Calm Calm - N/A   Mostly Cloudy
10:33 PM 64.4 °F 55.4 °F 73% 30.09 in 10.0 mi Calm Calm - N/A   Scattered Clouds
10:53 PM 64.4 °F 53.6 °F 68% 30.09 in 10.0 mi Calm Calm - N/A   Scattered Clouds
11:13 PM 60.8 °F 51.8 °F 72% 30.09 in 10.0 mi Calm Calm - N/A   Clear
11:33 PM 59.0 °F 51.8 °F 77% 30.08 in 10.0 mi Calm Calm - N/A   Scattered Clouds
11:53 PM 59.0 °F 53.6 °F 82% 30.10 in 10.0 mi Calm Calm - N/A   Mostly Cloudy